Weather in Zvezdny

Russia / Khanty-Mansi Autonomous Okrug — Yugra     61°16′47″N   73°24′18″E
temp.,
°C
wind,
m/s
gust,
m/s
humid.,
%
clouds,
%
prec.,
mm/h
press.,
hPa
HPBL,
m
16 may, mon
mon1623:00+12ssw3569100 0.3 100480
02:00+11ssw3876100 0.5 1003160
05:00+11sw387866 0.5 1003219
08:00+16sw475518 0.0 1002634
11:00+19sw583943 0.0 10022474
14:00+17ssw3550100 0.1 1002436
17:00+16sse3453100 0.1 1000236
20:00+14sw2370100 0.9 99967
17 may, tue
tue1723:00+13sse2577100 2.1 998118
02:00+11ssw2389100 0.4 99698
05:00+11ne1292100 2.3 99588
08:00+11ene2387100 1.4 994205
11:00+15ne236391 1.4 993816
14:00+17wnw455439 0.8 9931482
17:00+16wnw4855100 1.2 994290
20:00+14wnw356246 0.0 996112
18 may, wed
wed1823:00+12w346915 0.0 99857
02:00+10w347266 0.0 99957
05:00+11wnw377734 0.0 1001170
08:00+15wnw246192 0.0 1003506
11:00+18ssw24477 0.0 10051316
14:00+19ssw564432 0.0 10041409
17:00+18wsw4753100 0.1 1004538
20:00+15se2574100 2.6 1005124
19 may, thu
thu1923:00+12se2383100 3.1 100445
02:00+11s3686100 0.8 1002117
05:00+12sse3783100 0.9 1001179
08:00+15s3466100 0.0 1000333
11:00+16s3566100 1.6 998619
14:00+14ssw3472100 2.6 996553
17:00+12wnw3692100 7.2 995351
20:00+11w51092100 3.9 994642
20 may, fri
fri2023:00+10w5993100 8.0 994436
02:00+11w61388100 5.2 993639
05:00+10wsw81484100 5.9 994657
08:00+10wsw91383100 0.1 996778
11:00+9wsw91278100 0.1 999971
14:00+10wsw81270100 0.0 10011368
17:00+9wsw81276100 0.0 10021069
20:00+8wsw71281100 0.0 1003939